When you browse on this site, cookies collect data to enhance your experience and personalize the content and advertising you see.
Visit our Privacy Policy to learn more. By continuing to use the site, you agree to this use of cookies and data.
  • In Hungary
  • List of Countries
  • For 7 days
  • Water Temperature
  • Weather Map
  • News
  • Weather Widgets
  • user-avatar
    Login

    Hourly Weather Belenka

    Today, 22 October, Tuesday

    Time Temperature Precipitation Wind Pressure Humidity
    00:00 +9°C° 0 mm 6 mps 765 mmHg 73%
    01:00 +9°C° 0 mm 6 mps 765 mmHg 73%
    02:00 +9°C° 0 mm 6 mps 764 mmHg 72%
    03:00 +9°C° 0 mm 6 mps 764 mmHg 71%
    04:00 +9°C° 0 mm 6 mps 764 mmHg 71%
    05:00 +9°C° 0 mm 6 mps 764 mmHg 71%
    06:00 +9°C° 0 mm 6 mps 763 mmHg 72%
    07:00 +9°C° 0 mm 6 mps 763 mmHg 71%
    08:00 +10°C° 0 mm 5 mps 763 mmHg 70%
    09:00 +10°C° 0 mm 5 mps 763 mmHg 70%
    10:00 +10°C° 0.2 mm 5 mps 763 mmHg 74%
    11:00 +10°C° 0.2 mm 5 mps 763 mmHg 77%
    12:00 +10°C° 0.2 mm 5 mps 763 mmHg 80%
    13:00 +11°C° 0.3 mm 4 mps 763 mmHg 83%
    14:00 +11°C° 0.3 mm 4 mps 763 mmHg 86%
    15:00 +11°C° 0.3 mm 3 mps 763 mmHg 89%
    16:00 +11°C° 0 mm 3 mps 763 mmHg 91%
    17:00 +12°C° 0 mm 2 mps 763 mmHg 93%
    18:00 +10°C° 0 mm 2 mps 763 mmHg 94%
    19:00 +10°C° 0 mm 2 mps 763 mmHg 94%
    20:00 +11°C° 0 mm 1 mps 763 mmHg 93%
    21:00 +11°C° 0 mm 1 mps 763 mmHg 93%
    22:00 +11°C° 0 mm 1 mps 763 mmHg 93%
    23:00 +10°C° 0 mm 1 mps 763 mmHg 93%

    Tomorrow, 23 October, Wednesday

    Time Temperature Precipitation Wind Pressure Humidity
    00:00 +9°C° 0 mm 1 mps 763 mmHg 93%
    01:00 +9°C° 0 mm 1 mps 763 mmHg 93%
    02:00 +9°C° 0 mm 1 mps 764 mmHg 93%
    03:00 +8°C° 0 mm 1 mps 764 mmHg 93%
    04:00 +8°C° 0 mm 1 mps 764 mmHg 94%
    05:00 +7°C° 0 mm 0 mps 763 mmHg 94%
    06:00 +7°C° 0 mm 0 mps 763 mmHg 94%
    07:00 +9°C° 0 mm 1 mps 763 mmHg 91%
    08:00 +10°C° 0 mm 1 mps 763 mmHg 89%
    09:00 +10°C° 0 mm 2 mps 764 mmHg 86%
    10:00 +13°C° 0 mm 2 mps 763 mmHg 77%
    11:00 +13°C° 0 mm 3 mps 763 mmHg 69%
    12:00 +14°C° 0 mm 4 mps 762 mmHg 61%
    13:00 +14°C° 0 mm 4 mps 762 mmHg 58%
    14:00 +14°C° 0 mm 4 mps 762 mmHg 56%
    15:00 +14°C° 0 mm 4 mps 762 mmHg 54%
    16:00 +14°C° 0 mm 4 mps 762 mmHg 56%
    17:00 +13°C° 0 mm 4 mps 761 mmHg 58%
    18:00 +13°C° 0 mm 4 mps 761 mmHg 60%
    19:00 +13°C° 0 mm 4 mps 761 mmHg 65%
    20:00 +13°C° 0 mm 4 mps 761 mmHg 70%
    21:00 +13°C° 0 mm 4 mps 761 mmHg 76%
    22:00 +12°C° 0.1 mm 4 mps 761 mmHg 80%
    23:00 +12°C° 0.1 mm 4 mps 761 mmHg 84%

    Day after tomorrow, 24 October, Thursday

    Time Temperature Precipitation Wind Pressure Humidity
    00:00 +12°C° 0.1 mm 3 mps 761 mmHg 89%
    01:00 +12°C° 0 mm 3 mps 761 mmHg 91%
    02:00 +11°C° 0 mm 3 mps 761 mmHg 93%
    03:00 +11°C° 0 mm 3 mps 761 mmHg 95%
    04:00 +12°C° 0 mm 2 mps 761 mmHg 95%
    05:00 +12°C° 0 mm 2 mps 762 mmHg 95%
    06:00 +12°C° 0 mm 2 mps 762 mmHg 95%
    07:00 +12°C° 0 mm 2 mps 762 mmHg 93%
    08:00 +13°C° 0 mm 1 mps 762 mmHg 91%
    09:00 +13°C° 0 mm 1 mps 762 mmHg 88%
    10:00 +14°C° 0.2 mm 1 mps 762 mmHg 88%
    11:00 +14°C° 0.2 mm 1 mps 762 mmHg 87%
    12:00 +14°C° 0.2 mm 1 mps 762 mmHg 86%
    13:00 +15°C° 0 mm 1 mps 762 mmHg 84%
    14:00 +15°C° 0 mm 1 mps 762 mmHg 82%
    15:00 +14°C° 0 mm 0 mps 762 mmHg 80%
    16:00 +15°C° 0 mm 1 mps 762 mmHg 83%
    17:00 +14°C° 0 mm 1 mps 762 mmHg 85%
    18:00 +14°C° 0 mm 1 mps 762 mmHg 87%
    19:00 +13°C° 0 mm 1 mps 762 mmHg 88%
    20:00 +13°C° 0 mm 2 mps 762 mmHg 88%
    21:00 +13°C° 0 mm 2 mps 762 mmHg 88%
    22:00 +13°C° 0 mm 2 mps 762 mmHg 89%
    23:00 +12°C° 0 mm 2 mps 762 mmHg 90%

    25 October, Friday

    Time Temperature Precipitation Wind Pressure Humidity
    00:00 +12°C° 0 mm 2 mps 762 mmHg 91%
    01:00 +12°C° 0 mm 2 mps 762 mmHg 91%
    02:00 +12°C° 0 mm 2 mps 762 mmHg 91%
    03:00 +12°C° 0 mm 2 mps 762 mmHg 92%
    04:00 +12°C° 0 mm 2 mps 762 mmHg 92%
    05:00 +12°C° 0 mm 2 mps 762 mmHg 91%
    06:00 +12°C° 0 mm 2 mps 762 mmHg 91%
    07:00 +12°C° 0 mm 2 mps 763 mmHg 89%
    08:00 +13°C° 0 mm 2 mps 763 mmHg 87%
    09:00 +13°C° 0 mm 2 mps 763 mmHg 85%
    10:00 +14°C° 0.1 mm 2 mps 763 mmHg 82%
    11:00 +14°C° 0.1 mm 2 mps 763 mmHg 79%
    12:00 +15°C° 0.1 mm 2 mps 763 mmHg 76%
    13:00 +15°C° 0 mm 2 mps 763 mmHg 74%
    14:00 +16°C° 0 mm 2 mps 763 mmHg 72%
    15:00 +16°C° 0 mm 1 mps 763 mmHg 70%
    16:00 +15°C° 0 mm 1 mps 763 mmHg 74%
    17:00 +14°C° 0 mm 1 mps 763 mmHg 78%
    18:00 +13°C° 0 mm 2 mps 764 mmHg 81%
    19:00 +12°C° 0 mm 1 mps 764 mmHg 83%
    20:00 +12°C° 0 mm 1 mps 764 mmHg 84%
    21:00 +11°C° 0 mm 1 mps 764 mmHg 86%
    22:00 +11°C° 0 mm 1 mps 765 mmHg 87%
    23:00 +11°C° 0 mm 1 mps 765 mmHg 88%

    26 October, Saturday

    Time Temperature Precipitation Wind Pressure Humidity
    00:00 +11°C° 0 mm 1 mps 765 mmHg 88%
    01:00 +11°C° 0 mm 1 mps 765 mmHg 88%
    02:00 +11°C° 0 mm 1 mps 765 mmHg 87%
    03:00 +11°C° 0 mm 1 mps 765 mmHg 87%
    04:00 +10°C° 0 mm 1 mps 765 mmHg 87%
    05:00 +10°C° 0 mm 1 mps 765 mmHg 87%
    06:00 +10°C° 0 mm 1 mps 765 mmHg 86%
    07:00 +11°C° 0 mm 1 mps 765 mmHg 81%
    08:00 +12°C° 0 mm 1 mps 765 mmHg 76%
    09:00 +13°C° 0 mm 1 mps 766 mmHg 71%
    10:00 +14°C° 0 mm 1 mps 766 mmHg 66%
    11:00 +15°C° 0 mm 1 mps 766 mmHg 61%
    12:00 +17°C° 0 mm 2 mps 766 mmHg 56%
    13:00 +17°C° 0 mm 2 mps 765 mmHg 55%
    14:00 +17°C° 0 mm 2 mps 765 mmHg 55%
    15:00 +17°C° 0 mm 2 mps 764 mmHg 54%
    16:00 +16°C° 0 mm 2 mps 764 mmHg 57%
    17:00 +15°C° 0 mm 2 mps 764 mmHg 61%
    18:00 +14°C° 0 mm 2 mps 764 mmHg 64%
    19:00 +13°C° 0 mm 2 mps 764 mmHg 63%
    20:00 +13°C° 0 mm 2 mps 764 mmHg 63%
    21:00 +12°C° 0 mm 2 mps 764 mmHg 62%
    22:00 +12°C° 0 mm 2 mps 764 mmHg 61%
    23:00 +10°C° 0 mm 2 mps 764 mmHg 60%

    27 October, Sunday

    Time Temperature Precipitation Wind Pressure Humidity
    00:00 +10°C° 0 mm 2 mps 764 mmHg 59%
    01:00 +10°C° 0 mm 2 mps 764 mmHg 60%
    02:00 +9°C° 0 mm 2 mps 764 mmHg 61%
    03:00 +9°C° 0 mm 2 mps 764 mmHg 62%
    04:00 +9°C° 0 mm 3 mps 764 mmHg 64%
    05:00 +8°C° 0 mm 3 mps 763 mmHg 66%
    06:00 +8°C° 0 mm 3 mps 763 mmHg 69%
    07:00 +9°C° 0 mm 3 mps 763 mmHg 66%
    08:00 +11°C° 0 mm 3 mps 763 mmHg 64%
    09:00 +12°C° 0 mm 4 mps 763 mmHg 62%
    10:00 +13°C° 0 mm 5 mps 763 mmHg 58%
    11:00 +15°C° 0 mm 5 mps 763 mmHg 55%
    12:00 +16°C° 0 mm 6 mps 762 mmHg 52%
    13:00 +16°C° 0 mm 6 mps 762 mmHg 52%
    14:00 +16°C° 0 mm 6 mps 761 mmHg 52%
    15:00 +15°C° 0 mm 6 mps 761 mmHg 52%
    16:00 +14°C° 0 mm 5 mps 760 mmHg 55%
    17:00 +13°C° 0 mm 4 mps 760 mmHg 59%
    18:00 +12°C° 0 mm 4 mps 760 mmHg 62%
    19:00 +11°C° 0 mm 4 mps 760 mmHg 63%
    20:00 +11°C° 0 mm 4 mps 759 mmHg 64%
    21:00 +10°C° 0 mm 4 mps 759 mmHg 65%
    22:00 +10°C° 0 mm 4 mps 759 mmHg 65%
    23:00 +10°C° 0 mm 4 mps 759 mmHg 66%

    28 October, Monday

    Time Temperature Precipitation Wind Pressure Humidity
    00:00 +9°C° 0 mm 5 mps 758 mmHg 66%
    01:00 +9°C° 0 mm 5 mps 758 mmHg 68%
    02:00 +8°C° 0 mm 5 mps 757 mmHg 70%
    03:00 +8°C° 0 mm 5 mps 757 mmHg 72%
    04:00 +8°C° 0 mm 5 mps 756 mmHg 73%
    05:00 +8°C° 0 mm 5 mps 756 mmHg 74%
    06:00 +8°C° 0 mm 5 mps 755 mmHg 74%
    07:00 +9°C° 0 mm 6 mps 755 mmHg 70%
    08:00 +10°C° 0 mm 7 mps 754 mmHg 65%
    09:00 +11°C° 0 mm 8 mps 753 mmHg 61%
    10:00 +12°C° 0 mm 8 mps 753 mmHg 58%
    11:00 +13°C° 0 mm 8 mps 752 mmHg 56%
    12:00 +15°C° 0 mm 8 mps 751 mmHg 54%
    13:00 +13°C° 0.1 mm 8 mps 751 mmHg 57%
    14:00 +13°C° 0.1 mm 8 mps 750 mmHg 60%
    15:00 +13°C° 0.1 mm 8 mps 749 mmHg 64%
    16:00 +12°C° 1 mm 8 mps 749 mmHg 69%
    17:00 +11°C° 1 mm 7 mps 749 mmHg 75%
    18:00 +10°C° 1 mm 7 mps 750 mmHg 81%
    19:00 +9°C° 0.1 mm 6 mps 750 mmHg 78%
    20:00 +8°C° 0.1 mm 5 mps 750 mmHg 75%
    21:00 +7°C° 0.1 mm 4 mps 750 mmHg 72%
    22:00 +6°C° 0 mm 4 mps 751 mmHg 73%
    23:00 +6°C° 0 mm 4 mps 751 mmHg 75%
    Show more